Regional Weather Roundup
Issued by NWS

Home | Current Version | Previous Version | Text Only | Print | Product List | Glossary Off
Versions: 1 2 3 4 5 6 7 8 9 10 11 12 13 14 15 16 17 18 19 20 21 22 23 24 25 26 27 28 29 30 31 32 33 34 35 36 37 38 39 40 41 42 43 44 45 46 47 48 49 50

000
ASUS44 KMEG 051400
RWRTN
TENNESSEE HOURLY STATE WEATHER ROUNDUP
NATIONAL WEATHER SERVICE MEMPHIS TN
800 AM CST FRI FEB 05 2016

TNZ002-004-019-021-049-052-054-088>092-051500-
WEST TENNESSEE

CITY           SKY/WX    TMP DP  RH WIND       PRES   REMARKS
MEMPHIS INTL   CLOUDY    33  27  78 SW3       30.47R
NWS MEMPHIS      N/A     29 N/A N/A MISG        N/A
JACKSON        SUNNY     26  23  88 CALM      30.46R
DYERSBURG      SUNNY     28  27  93 CALM      30.47R
UNION CITY     SUNNY     28  25  86 CALM      30.44R
PARIS          SUNNY     25  21  86 CALM      30.45R
LEXINGTON      SUNNY     25  21  86 CALM      30.45S
$$

TNZ008-025-027-028-033-062-065-066-051500-
NORTH MIDDLE TENNESSEE

CITY           SKY/WX    TMP DP  RH WIND       PRES   REMARKS
NASHVILLE      SUNNY     27  22  81 CALM      30.48R
CLARKSVILLE    MOSUNNY   26  24  92 CALM      30.46R
COOKEVILLE     SUNNY     25  21  86 CALM      30.44R
CROSSVILLE     SUNNY     27  17  66 NE7       30.40R WCI  19
$$

TNZ061-075-076-078-094-096-097-051500-
SOUTH MIDDLE TENNESSEE

CITY           SKY/WX    TMP DP  RH WIND       PRES   REMARKS
TULLAHOMA      SUNNY     27  25  93 CALM      30.44R
WINCHESTER     SUNNY     27  21  80 CALM      30.45R
MCMINNVILLE    SUNNY     27  23  86 E13       30.45R WCI  16
COLUMBIA       SUNNY     27  27 100 CALM      30.45R
SHELBYVILLE    SUNNY     27  23  86 CALM      30.47R
$$

TNZ017-018-042-046-047-051500-
NORTHEAST TENNESSEE

CITY           SKY/WX    TMP DP  RH WIND       PRES   REMARKS
TRI CITIES     MOSUNNY   30  16  56 NW3       30.41R
$$

TNZ012-013-036-069-073-074-051500-
CENTRAL EAST TENNESSEE

CITY           SKY/WX    TMP DP  RH WIND       PRES   REMARKS
KNOXVILLE      SUNNY     31  20  63 N6        30.44R WCI  25
OAK RIDGE      SUNNY     31  20  63 CALM      30.46R
GATLINBURG       N/A     27  19  74 CALM      30.44R
$$

TNZ083-085-099-051500-
SOUTHEAST TENNESSEE

CITY           SKY/WX    TMP DP  RH WIND       PRES   REMARKS
CHATTANOOGA    SUNNY     32  17  54 N10       30.44R WCI  24
$$

SKY/WX REPORTED AS FAIR MEANS FEW OR NO CLOUDS BELOW
12 THOUSAND FEET.




USA.gov is the U.S. government's official web portal to all federal, state and local government web resources and services.